Regional Weather Roundup
Issued by NWS

Home | Current Version | Previous Version | Graphics & Text | Print | Product List | Glossary On
Versions: 1 2 3 4 5 6 7 8 9 10 11 12 13 14 15 16 17 18 19 20 21 22 23 24 25 26 27 28 29 30 31 32 33 34 35 36 37 38 39 40 41 42 43 44 45 46 47 48 49 50
000
ASUS43 KIND 252009
RWRIN

WEATHER ROUNDUP FOR INDIANA
NATIONAL WEATHER SERVICE INDIANAPOLIS IN
400 PM EDT TUE APR 25 2017

NOTE: "FAIR" INDICATES FEW OR NO CLOUDS BELOW 12,000 FEET WITH NO
SIGNIFICANT WEATHER AND/OR OBSTRUCTIONS TO VISIBILITY.

* - STATION DOES NOT REPORT WEATHER SUCH AS PRECIPITATION OR FOG.

+ - STATION NOT QUALITY CONTROLLED BY THE NATIONAL WEATHER SERVICE.
    USE DATA WITH CAUTION...ESPECIALLY DEWPOINT AND RELATIVE
    HUMIDITY OBSERVATIONS.

INZ001>003-010>013-019-020-252100-
NORTHWEST INDIANA

CITY           SKY/WX    TMP DP  RH WIND       PRES   REMARKS
GARY /AIRPORT/ PTSUNNY   79  41  25 S12G23    29.63F
KNOX *+        CLOUDY    75  25  15 S15       29.67F
LA PORTE +     CLOUDY    74  53  47 SE10      29.68F
MICHIGAN CITY+ MOSUNNY   75  50  41 S13       29.67F
MONTICELLO +   SUNNY     76  50  41 S7        29.66F
RENSSELAER +   SUNNY     79  45  29 SE10G16   29.65F
VALPARAISO     MOSUNNY   78  50  37 S12G21    29.66F

$$

LMZ046-743>745-252100-
SOUTHERN LAKE MICHIGAN

STATION/POSITION TIME  TEMP    WIND        PRES    WAVE
                       AIR SEA DIR/SP/G            HT
                 (UTC) (F)     (DEG/KT/KT) (MB)    (FT)
BURNS HARBOR     1940   75     160/  7/ 22 1004.4F
MICHIGAN CITY    1940   72     180/ 13/ 16   N/A

$$

INZ004-005-014>016-021>024-252100-
NORTH CENTRAL INDIANA

CITY           SKY/WX    TMP DP  RH WIND       PRES   REMARKS
ELKHART        MOSUNNY   72  54  53 SE14      29.69F
GOSHEN         MOSUNNY   72  53  51 S9G18     29.70F
LOGANSPORT +   MOSUNNY   73  54  49 SE8       29.69F
PERU/GRISSOM   MOSUNNY   75  56  52 SE10      29.68F
ROCHESTER +    MOSUNNY   77  54  44 SE7       29.69F
SOUTH BEND     CLOUDY    73  55  53 SE13      29.68F
WARSAW +       MOSUNNY   72  54  53 S6        29.70F

$$

INZ006>009-017-018-025>027-252100-
NORTHEAST INDIANA

CITY           SKY/WX    TMP DP  RH WIND       PRES   REMARKS
ANGOLA *+      MOSUNNY   72  55  56 SE8       29.72F
AUBURN +       MOSUNNY   73  52  46 SE3       29.72F
FORT WAYNE     PTSUNNY   73  55  53 SE5       29.71F
HUNTINGTON +   MOSUNNY   73  54  50 S7        29.70F
KENDALLVILLE + MOSUNNY   73  57  57 S8        29.72F

$$

INZ028-029-035-036-043>045-051>053-252100-
WEST CENTRAL INDIANA

CITY           SKY/WX    TMP DP  RH WIND       PRES   REMARKS
CRAWFORDSVL +  MOSUNNY   74  53  48 S13       29.67F
GREENCASTLE +  SUNNY     75  54  46 S9G17     29.68F
LAFAYETTE      SUNNY     75  55  49 SE10      29.65F
TERRE HAUTE    SUNNY     77  54  44 S13       29.67F

$$

INZ030>032-037>040-046>048-054>057-064-065-252100-
CENTRAL INDIANA

CITY           SKY/WX    TMP DP  RH WIND       PRES   REMARKS
CP ATTERBURY + SUNNY     73  55  53 S9        29.70F
COLUMBUS       SUNNY     73  50  43 S9        29.71F
FISHERS *+     MOSUNNY   75  59  57 SE6       29.69F
FRANKFORT +    MOSUNNY   78  54  42 S8        29.70F
GREENWOOD *+   SUNNY     76  53  45 S7        29.71F
INDIANAPOLIS   PTSUNNY   74  54  49 S8        29.68F
-EAGLE CREEK   SUNNY     75  53  46 SE9       29.68F
KOKOMO +       MOSUNNY   75  55  49 S9        29.70F
MARION +       MOSUNNY   73  54  49 S9        29.71F
MT COMFORT *+  SUNNY     73  55  53 SE8G16    29.70F
SHELBYVILLE    SUNNY     76  53  44 SE7       29.70F
ZIONSVILLE +   MOSUNNY   74  54  49 S8        29.70F

$$

INZ033-034-041-042-049-050-058-059-252100-
EAST CENTRAL INDIANA

CITY           SKY/WX    TMP DP  RH WIND       PRES   REMARKS
MUNCIE         MOSUNNY   75  53  46 SE5       29.70F
RICHMOND +     CLOUDY    72  54  53 S7        29.74F

$$

INZ060-061-067>069-081>083-085>088-252100-
SOUTHWEST INDIANA

CITY           SKY/WX    TMP DP  RH WIND       PRES   REMARKS
EVANSVILLE     SUNNY     78  56  46 S9        29.69F
HUNTINGBURG *+ MOSUNNY   75  57  53 S13G18    29.69F
WASHINGTON +   SUNNY     77  52  41 CALM      29.67F

$$

INZ062-063-066-070>080-084-089>092-252100-
SOUTH CENTRAL AND SOUTHEAST INDIANA

CITY           SKY/WX    TMP DP  RH WIND       PRES   REMARKS
BEDFORD +      MOSUNNY   75  52  43 S5        29.69F
BLOOMINGTON    MOSUNNY   76  54  46 VRB5G20   29.69F
MADISON *+     SUNNY     73  54  49 S3        29.74F
NORTH VERNON + MOSUNNY   72  55  56 S6        29.71F
SEYMOUR +      MOSUNNY   75  55  50 CALM      29.70F

$$





USA.gov is the U.S. government's official web portal to all federal, state and local government web resources and services.